Location: Le Contour
(46.4231°N, 7.1461°E)
Time: 16:51:11
(UTC+00:00)

Daily predictions for brighter satellites

Satellite Brightness Start Highest point End
(mag) Time Altitude Azimuth Time Altitude Azimuth Time Altitude Azimuth
CSL-04 Rocket 3.9 17:32:30 10° SE 17:37:47 49° ENE 17:43:01 10° N
Cosmos 1833 4.2 17:32:25 10° NNW 17:38:12 71° ENE 17:43:54 10° SE
STARLINK-1034 3.9 17:35:19 10° WSW 17:39:27 69° NNW 17:43:35 10° ENE
STARLINK-1053 4.3 17:37:23 10° SSW 17:41:14 39° SE 17:45:07 10° ENE
ATLAS 3B R/B 4.4 17:37:26 10° NW 17:41:50 18° N 17:46:18 10° NE
Cosmos 44 4.1 17:38:05 10° NW 17:42:23 52° WSW 17:46:49 10° SSE
CZ-2D R/B 3.7 17:39:01 10° SE 17:42:41 41° ENE 17:46:22 10° N
STARLINK-1014 4.4 17:39:43 10° W 17:42:58 34° NNW 17:46:14 10° NE
STARLINK-1068 3.9 17:40:19 10° WSW 17:44:26 65° NNW 17:48:33 10° ENE
STARLINK-80 4.4 17:41:20 10° NW 17:44:53 35° NNE 17:48:26 10° E
STARLINK-1061 4.2 17:42:16 10° SSW 17:46:11 42° SE 17:50:06 10° ENE
CZ-4 R/B 1.4 17:42:05 10° SSE 17:46:15 74° ENE 17:50:22 10° N
Lacrosse 4 Rocket 4.1 17:45:36 10° WNW 17:48:07 15° NW 17:50:40 10° N
Cosmos 1633 Rocket 3.6 17:45:49 10° SSW 17:50:07 65° W 17:54:28 10° N
YAOGAN 1 2.6 17:46:10 10° SSE 17:50:26 65° ENE 17:54:45 10° N
NOSS 7 (D) 4.2 17:47:34 10° NNW 17:50:28 57° NE 17:53:41 10° SE
STARLINK-1067 4.1 17:47:11 10° SSW 17:51:09 45° SE 17:55:07 10° ENE
Cosmos 2263 4.3 17:46:01 10° SSW 17:51:49 87° WNW 17:57:37 10° NNE
Ariane Rocket 3.8 17:49:10 10° SE 17:53:34 30° ENE 17:57:59 10° N
STARLINK-1060 4.1 17:50:20 10° WSW 17:54:25 58° NNW 17:58:31 10° ENE
STARLINK-1058 4.0 17:52:06 10° SW 17:56:06 49° SE 18:00:06 10° ENE
NOSS 2-3 (C) 4.0 17:51:52 10° SW 17:56:13 71° NW 18:01:26 10° NE
USA 116 4.1 17:53:03 10° NNE 17:57:14 59° ESE 18:01:55 10° S
Cosmos 990 Rocket 4.3 17:52:54 10° NNW 17:57:51 45° ENE 18:02:47 10° SE
STARLINK-1029 4.5 17:55:58 10° WNW 17:58:46 27° NNW 18:01:34 10° NE
STARLINK-1030 4.2 17:55:22 10° WSW 17:59:25 55° NNW 18:03:31 10° ENE
Cosmos 1943 Rocket 3.3 17:54:30 10° SW 17:59:49 45° WNW 18:05:09 10° NNE
CSL-04 Debris 4.2 17:54:30 10° SSE 17:59:57 75° ENE 18:05:27 10° NNW
STARLINK-1043 3.9 17:57:01 10° SW 18:01:03 53° SE 18:04:53 11° ENE
Cosmos 1933 Rocket 3.5 17:56:44 10° S 18:01:06 66° E 18:05:26 10° NNE
Cosmos 2297 Rocket 3.7 17:57:48 10° N 18:01:41 18° NE 18:05:00 12° E
SKYMED 2 4.0 17:58:01 10° N 18:02:21 69° WNW 18:06:40 10° SSW
STARLINK-1020 4.2 18:00:21 10° W 18:04:25 52° NNW 18:08:29 10° NE
STARLINK-1065 3.8 18:01:47 10° SW 18:05:50 58° SE 18:09:29 13° ENE
Cosmos 1340 3.1 18:04:11 10° SSW 18:07:54 66° WNW 18:11:40 10° N
NOAA 11 4.3 18:03:01 10° SSE 18:08:28 85° WSW 18:13:56 10° NNW
Cosmos 1346 Rocket 2.8 18:04:56 10° SSW 18:08:54 84° W 18:12:53 10° N
STARLINK-1052 4.3 18:05:23 10° W 18:09:24 50° NNW 18:13:16 11° NE
STARLINK-1063 3.7 18:06:52 10° SW 18:10:57 63° SE 18:14:25 14° ENE
STARLINK-1047 4.4 18:07:42 10° W 18:11:45 48° NNW 18:15:32 12° NE
Cosmos 1464 Rocket 4.2 18:05:44 10° SSE 18:11:51 52° E 18:18:01 10° NNE
Cosmos 1937 Rocket 3.8 18:07:35 10° N 18:12:38 45° ENE 18:17:35 10° SE
Genesis I 4.4 18:11:54 10° NNW 18:15:13 26° NE 18:17:06 18° E
STARLINK-1064 3.6 18:11:49 10° SW 18:15:56 68° SE 18:19:11 16° ENE
ADEOS Rocket 3.6 18:08:28 10° NNE 18:16:16 68° ESE 18:23:47 10° S
Meteor 2-11 Rocket 4.5 18:12:12 10° SSE 18:18:07 55° E 18:24:03 10° NNE
STARLINK-1033 4.4 18:15:24 10° W 18:19:24 46° NNW 18:22:50 13° NE
Meteor 1-20 Rocket 4.1 18:14:59 10° S 18:20:27 74° E 18:26:02 10° NNE
DMSP B5D1-3 4.5 18:15:43 10° NNE 18:20:53 72° ESE 18:26:02 10° S
STARLINK-1041 3.6 18:16:47 10° SW 18:20:54 73° SE 18:23:59 17° ENE
Cosmos 2227 Rocket 3.5 18:16:43 10° N 18:21:02 22° NE 18:23:26 17° ENE
Cosmos 1656 Rocket 3.9 18:18:40 10° SSW 18:24:11 74° WNW 18:29:50 10° NNE
Cosmos 2221 Rocket 4.4 18:21:50 10° N 18:25:49 30° ENE 18:28:33 17° SE
STARLINK-1038 3.5 18:21:43 10° SW 18:25:51 78° SE 18:28:44 19° ENE
H-2A R/B 2.5 18:25:27 10° SE 18:30:33 45° ENE 18:35:44 10° N
STARLINK-1046 3.5 18:26:42 10° SW 18:30:51 84° SSE 18:33:33 21° ENE
Cosmos 2034 Rocket 4.0 18:28:26 10° SSE 18:34:24 55° E 18:40:22 10° NNE
STARLINK-1039 3.5 18:31:43 10° WSW 18:35:51 89° SE 18:38:22 23° ENE
Cosmos 220 Rocket 3.9 18:33:08 10° S 18:37:23 63° ESE 18:41:37 10° NNE
Meteor 1-18 Rocket 4.3 18:33:00 10° N 18:38:57 88° E 18:44:45 10° S
COSMOS 2487 4.0 18:36:37 10° NW 18:39:50 37° WSW 18:43:02 10° S
STARLINK-1045 3.6 18:36:40 10° WSW 18:40:49 86° NNW 18:43:08 25° ENE
STARLINK-75 4.4 18:38:01 10° NW 18:40:59 28° N 18:41:59 24° NE
STARLINK-43 3.4 18:41:05 10° WNW 18:44:46 74° SW 18:46:22 32° SE
HJ-1C 3.6 18:42:20 10° S 18:45:36 68° WSW 18:48:54 10° NNW
STARLINK-1050 3.6 18:41:42 10° WSW 18:45:51 79° NNW 18:47:59 28° NE
Timation 2 Rocket 4.2 18:39:24 10° NNW 18:46:21 87° WSW 18:53:12 10° SSE
Lacrosse 5 rocket 2.6 18:42:31 10° NW 18:46:38 32° NNE 18:48:11 26° ENE
Okean 1 3.4 18:43:01 10° NNW 18:47:02 76° W 18:51:00 10° S
Cosmos 468 Rocket 4.0 18:41:49 10° SSW 18:47:08 85° WNW 18:52:29 10° NNE
Okean 1-7 3.3 18:43:47 10° NNW 18:48:05 68° W 18:52:25 10° S
Cosmos 2219 3.6 18:44:15 10° NNW 18:49:47 45° NE 18:52:14 29° ESE
STARLINK-1055 3.7 18:46:41 10° WSW 18:50:49 74° NNW 18:52:45 30° NE
Cosmos 192 4.5 18:46:44 10° SSW 18:51:38 76° WNW 18:56:33 10° NNE
Lacrosse 5 1.8 18:47:46 10° SW 18:52:50 73° SE 18:55:38 27° ENE
Cosmos 405 4.1 18:49:29 10° NNW 18:52:54 45° W 18:56:17 10° S
NOSS 2-2 (E) 4.5 18:49:58 10° S 18:51:53 24° SSE 18:51:53 24° SSE
MOS 1 4.2 18:47:34 10° SSE 18:53:11 71° ENE 18:58:49 10° N
Cosmos 1092 Rocket 4.2 18:47:11 10° N 18:53:22 51° ENE 18:58:47 13° SSE
STARLINK-1022 3.8 18:51:40 10° WSW 18:55:48 70° NNW 18:57:31 33° NE
Meteor 2-4 Rocket 3.8 18:51:30 10° N 18:57:26 66° ENE 19:03:19 10° SSE
Meteor 1-14 Rocket 4.2 18:52:03 10° SSW 18:57:35 84° W 19:03:12 10° N
Cosmos 1634 Rocket 4.4 18:52:29 10° SSE 18:58:13 38° E 19:03:59 10° NNE
USA 234 4.2 18:55:21 18° ENE 18:59:23 36° N 19:05:12 10° WNW
Gbstr 26 Del rocket 3.2 18:55:56 10° WSW 19:00:02 70° NNW 19:02:07 32° NE
STARLINK-1042 3.8 18:56:41 10° WSW 19:00:48 66° NNW 19:02:19 36° NE
Cosmos 1814 Rocket 4.0 18:56:04 10° S 19:01:01 53° ESE 19:06:02 10° NNE
Cosmos 2369 Rocket 4.4 18:57:23 10° W 19:01:53 23° NW 19:06:24 10° N
Cosmos 1602 4.5 19:00:28 10° SSW 19:04:16 54° WNW 19:08:04 10° N
USA 186 3.0 19:05:54 28° N 19:05:54 28° N 19:07:26 10° NNW
Cosmos 44 Rocket 3.9 19:00:28 10° NW 19:05:05 53° WSW 19:08:48 16° SSE
Cosmos 1898 Rocket 4.4 19:00:33 10° NNW 19:05:33 50° WSW 19:10:32 10° S
STARLINK-1056 3.9 19:01:41 10° WSW 19:05:47 62° NNW 19:07:06 39° NE
SJ 16-02 2.4 19:02:30 10° NNW 19:06:43 44° WSW 19:10:52 10° S
Cosmos 841 Rocket 3.3 19:01:57 10° S 19:07:03 67° ESE 19:12:12 10° NNE
NOSS 3-2 (A) 4.1 18:59:52 10° NW 19:07:09 58° NE 19:10:56 33° ESE
STARLINK-48 3.5 19:03:30 10° WNW 19:07:21 59° NNE 19:07:38 57° NE
Cosmos 1763 Rocket 3.7 19:02:17 10° SSW 19:07:30 71° WNW 19:12:49 10° NNE
ARGOS 3.0 19:04:37 13° SSE 19:09:33 80° ENE 19:15:01 10° NNW
Resurs 01 Rocket 3.0 19:11:24 24° NNE 19:11:24 24° NNE 19:13:45 10° N
Cosmos 2298 Rocket 4.1 19:05:26 10° NNW 19:10:43 58° ENE 19:12:02 45° ESE
STARLINK-1054 4.0 19:06:40 10° WSW 19:10:46 59° NNW 19:11:53 42° NNE
NOSS 3-2 (C) 4.4 19:03:51 10° NNW 19:10:52 47° NE 19:13:51 34° E
STARLINK-26 3.6 19:09:10 10° NW 19:12:15 54° N 19:12:15 54° N
STARLINK-61 4.2 19:09:35 10° NW 19:13:17 39° NNE 19:13:23 39° NNE
Cosmos 1869 Rocket 4.2 19:09:38 10° SSW 19:13:57 56° WNW 19:18:15 10° N
Cosmos 2208 Rocket 3.9 19:08:46 10° SSW 19:14:10 84° ESE 19:19:33 10° NNE
ARGOS Delta rocket 3.5 19:13:10 48° SE 19:14:18 72° ENE 19:18:49 10° N
Meteor 1-11 Rocket 3.8 19:09:32 10° SSE 19:14:51 47° E 19:20:07 10° NNE
SPOT 3 Rocket 3.5 19:13:10 40° SE 19:14:56 64° ENE 19:20:06 10° N
STARLINK-1062 4.1 19:11:40 10° WSW 19:15:45 56° NNW 19:16:39 45° NNE
CENTAUR R/B 3.5 19:12:22 10° NW 19:19:51 46° NE 19:22:39 36° E
STARLINK-1053 4.1 19:16:42 10° W 19:20:45 53° NNW 19:21:26 47° NNE
STARLINK-80 3.5 19:19:38 10° WNW 19:23:11 72° W 19:23:11 72° W
CZ-2C R/B 3.3 19:18:50 10° S 19:24:38 81° WSW 19:30:19 10° NNW
STARLINK-1061 4.2 19:21:41 10° W 19:25:44 51° NNW 19:26:12 48° N
Cosmos 2150 Rocket 4.0 19:22:03 10° NNW 19:27:30 73° ENE 19:28:23 60° SE
Cosmos 1570 Rocket 4.4 19:23:20 10° SSW 19:28:33 64° WNW 19:33:49 10° NNE
SJ-6B 3.0 19:29:20 63° WSW 19:29:25 64° W 19:33:12 10° NNW
STARLINK-1067 4.3 19:26:43 10° W 19:30:44 48° NNW 19:31:00 48° N
Ariane Rocket 4.3 19:27:38 10° SSW 19:32:23 39° W 19:37:11 10° NNW
Cosmos 1125 Rocket 3.9 19:27:29 10° NNW 19:32:01 46° NE 19:32:01 46° NE
Okean 3 3.8 19:28:31 10° NNW 19:32:42 64° W 19:33:29 52° SSW
Cosmos 540 Rocket 3.4 19:28:29 10° SSW 19:33:37 84° WNW 19:38:48 10° NNE
ATLAS 3B R/B 3.5 19:28:37 10° NNW 19:34:40 34° NE 19:35:31 33° NE
STARLINK-1058 4.4 19:31:43 10° W 19:35:44 46° NNW 19:35:46 46° NNW
Cosmos 1627 Rocket 4.3 19:32:43 10° N 19:38:57 83° E 19:41:01 45° SSE
Meteor 1-13 Rocket 4.3 19:36:31 10° NNW 19:42:23 79° W 19:44:37 39° S
SL-08 RB Rocket 3.8 19:42:32 66° SW 19:42:48 68° WSW 19:47:16 10° NNW
APEX 4.4 19:39:34 10° SW 19:44:38 67° WNW 19:51:00 10° NNE
Cosmos 2297 Rocket 2.0 19:40:55 10° NNW 19:46:38 85° ENE 19:46:50 82° ESE
CZ-2C R/B 3.9 19:42:53 10° N 19:47:33 72° WNW 19:52:15 10° SSW
Cosmos 2026 Rocket 4.0 19:50:43 10° N 19:56:53 78° W 19:58:21 54° SSW
ATLAS 2AS CENTAUR R/B 4.0 19:49:56 10° S 19:53:45 29° S 19:53:45 29° S
Cosmos 2227 Rocket 2.3 20:00:04 10° NNW 20:05:17 73° WNW 20:05:17 73° WNW
Meteor 1-23 Rocket 4.5 20:02:24 10° NNW 20:07:09 63° NNW 20:07:09 63° NNW
USA 238 DEB 3.9 20:00:58 10° NW 20:08:09 73° SW 20:09:21 62° S
USA 238 3.9 20:01:04 10° NW 20:08:15 73° SW 20:09:24 62° S
H-2A R/B 3.9 20:05:29 10° SSW 20:10:07 29° W 20:14:49 10° NW
Cosmos 2082 4.3 20:06:12 10° NNW 20:10:31 51° N 20:10:31 51° N
Lacrosse 5 rocket 3.5 20:21:37 10° NW 20:23:51 28° WNW 20:23:51 28° WNW
Lacrosse 5 3.5 20:31:29 10° W 20:34:53 31° NW 20:34:53 31° NW
USA 234 3.8 20:42:41 49° N 20:42:41 49° N 20:47:58 10° NW
Cosmos 2263 Rocket 4.2 20:39:28 10° NNW 20:41:27 20° N 20:41:27 20° N
Resurs 01 Rocket 4.2 20:48:56 18° NW 20:48:56 18° NW 20:50:17 10° NNW
NOSS 3-2 (C) 4.5 20:54:45 10° NW 21:01:19 55° W 21:01:19 55° W
CENTAUR R/B 3.5 21:03:04 10° NW 21:09:51 58° W 21:09:51 58° W
ATLAS 3B R/B 4.0 21:19:09 10° NW 21:22:47 35° NW 21:22:47 35° NW
